[[{"header":{"parameterUnit":"m.s-1","parameterCategory":1,"la1":30.2991,"la2":30.254,"lo1":-89.0895,"lo2":-89.0444,"dy":0.0017,"dx":0.0017,"nx":28,"ny":28,"refTime":"2024-09-01T03:00:00:Z","depth":0,"parameterNumber":2,"parameterNumberName":"U-component_of_WINDS"},"data":[0,0,0,0,0,0,0,0,0,0,0,0,0,0,0,0,0,0,0,0,0,0,0,0,0,0,0,0,0,0,0,0,0,0,0,0,0,0,0,0,0,0,0,0,0,0,0,0,0,0,0,0,0,0,0,0,0,0,0.5736,0.5736,0,0.5757,0.5757,0.5757,0.5779,0.578,0.578,0.578,0.5801,0.5801,0.5801,0,0,0,0,0,0,0,0,0,0,0,0,0,0.5713,0.5714,0.5736,0.5736,0.5736,0.5757,0.5757,0.5757,0.5779,0.578,0.578,0.578,0.5801,0.5801,0.5801,0,0,0,0,0,0,0,0,0,0,0,0,0,0.5728,0.5714,0.5736,0.575,0.5751,0.5757,0.5757,0.5758,0.5779,0.578,0.578,0.578,0.5801,0.5801,0.5801,0.5795,0,0,0.5803,0.5803,0,0,0,0,0,0,0,0,0.5727,0.5728,0.5747,0.5749,0.575,0.5766,0.5757,0.577,0.5779,0.5768,0.578,0.5781,0.5789,0.579,0.5793,0.5796,0.5797,0.5803,0.5803,0.5803,0.5803,0,0,0,0,0,0,0,0.5726,0.5728,0.5744,0.5747,0.5749,0.5755,0.5757,0.5759,0.5776,0.5769,0.5771,0.5773,0.579,0.5793,0.5794,0.5797,0.5803,0.5803,0.5803,0.5803,0.5795,0.5795,0,0,0,0,0,0,0.5723,0.5727,0.5743,0.5745,0.5739,0.5755,0.5757,0.576,0.5776,0.5779,0.5773,0.5774,0.5792,0.5793,0.5795,0.5788,0.5803,0.5803,0.5804,0.5796,0.5795,0.5795,0,0,0,0,0,0,0.5722,0.5724,0.5742,0.5736,0.5739,0.5755,0.5758,0.5761,0.5764,0.5778,0.5781,0.5773,0.5792,0.5794,0.5795,0.5789,0.5804,0.5804,0.5796,0.5796,0.5795,0.5774,0,0,0,0,0,0,0.5721,0.5724,0.5721,0.5736,0.5739,0.5742,0.5757,0.5761,0.5764,0.5766,0.5779,0.5782,0.5793,0.5794,0.5795,0.5789,0.5804,0.5797,0.5796,0.5795,0.5775,0.5772,0.577,0,0,0,0,0,0.5721,0.5714,0.5721,0.5723,0.5737,0.5742,0.5744,0.5756,0.5764,0.5761,0.5771,0.5781,0.5789,0.5794,0.5795,0.579,0.5797,0.5796,0.5795,0.5776,0.5773,0.577,0,0,0,0,0,0,0.5698,0.5716,0.5724,0.5722,0.573,0.5745,0.5743,0.5753,0.5758,0.576,0.5776,0.5778,0.5777,0.5784,0.5788,0.5784,0.5795,0.5794,0.578,0.5777,0.5774,0.5772,0.5805,0,0,0,0,0,0.5693,0.5696,0.5712,0.5708,0.5712,0.5727,0.573,0.5739,0.5748,0.5751,0.5761,0.5769,0.5773,0.5776,0.578,0.5777,0.578,0.5774,0.5771,0.5769,0.5768,0.5766,0.5764,0.5792,0.5792,0.5792,0,0,0.5682,0.5692,0.5693,0.5704,0.5711,0.5714,0.5729,0.5731,0.5733,0.5751,0.5752,0.576,0.577,0.5768,0.5768,0.5774,0.5761,0.5768,0.5766,0.5766,0.5765,0.5762,0.576,0.5791,0.5791,0.5791,0,0,0.5663,0.5672,0.567,0.5677,0.5688,0.5698,0.5698,0.5712,0.5718,0.5719,0.5733,0.5736,0.5743,0.5749,0.5754,0.5739,0.5748,0.574,0.5727,0.5725,0.5723,0.5721,0.5715,0.5713,0.5739,0.5739,0.5739,0,0.5648,0.5652,0.5668,0.5669,0.5673,0.5691,0.5689,0.5695,0.5707,0.571,0.5716,0.5726,0.5734,0.5734,0.573,0.5733,0.5733,0.5738,0.5722,0.572,0.5719,0.5713,0.5711,0.5738,0.5738,0.5738,0.5738,0,0.5633,0.5636,0.5633,0.5645,0.5649,0.5649,0.5664,0.5666,0.5676,0.5685,0.5687,0.5697,0.5704,0.5705,0.5714,0.5707,0.571,0.5719,0.573,0.5714,0.5709,0.5708,0.5736,0.5736,0.5737,0.5737,0,0,0.5599,0.562,0.5618,0.5624,0.5638,0.5641,0.5642,0.5649,0.5651,0.5659,0.566,0.5666,0.5675,0.568,0.569,0.5688,0.5675,0.5698,0.5698,0.5692,0.5667,0.5659,0.5657,0.5682,0.5682,0.5682,0.5666,0,0.5582,0.5584,0.5598,0.5596,0.5599,0.5617,0.5617,0.5626,0.5635,0.5639,0.5649,0.5653,0.5664,0.5667,0.5667,0.5677,0.567,0.5678,0.5682,0.5682,0.5678,0.5654,0.5646,0.563,0.5664,0.5664,0.5664,0,0.5562,0.5569,0.5567,0.5582,0.5584,0.5584,0.5593,0.5596,0.5607,0.5613,0.5619,0.5631,0.5633,0.5644,0.5646,0.5652,0.5654,0.566,0.566,0.5659,0.5671,0.5652,0.5626,0.5623,0.5661,0.5661,0.5661,0,0.5536,0.5546,0.5546,0.555,0.5568,0.5568,0.5575,0.5586,0.559,0.5597,0.56,0.5607,0.5611,0.5617,0.563,0.5637,0.5631,0.5643,0.5636,0.5635,0.5632,0.5632,0.5604,0.5636,0.5636,0.5636,0.5636,0,0.5514,0.5512,0.5535,0.5534,0.5533,0.555,0.5548,0.5557,0.5567,0.5569,0.5585,0.5586,0.5604,0.5608,0.5619,0.5619,0.5621,0.5626,0.5628,0.5623,0.5623,0.5624,0.5625,0.5636,0.5636,0.5636,0.5636,0,0.5484,0.5499,0.5501,0.5518,0.5522,0.552,0.5534,0.5535,0.5546,0.5548,0.555,0.5566,0.5571,0.5586,0.5594,0.5602,0.5598,0.5604,0.5595,0.5596,0.5588,0.5588,0.5559,0.5556,0.5591,0.559,0.559,0,0.5469,0.5468,0.5485,0.5488,0.5495,0.5499,0.5503,0.552,0.5524,0.5536,0.5535,0.5542,0.5548,0.5555,0.5568,0.5575,0.558,0.557,0.5581,0.5576,0.5579,0.5578,0.5578,0.5567,0.5566,0.5566,0.5565,0,0.544,0.5448,0.5453,0.5462,0.5466,0.5474,0.5482,0.5483,0.5502,0.5506,0.5511,0.5516,0.5526,0.5532,0.5541,0.5548,0.556,0.5562,0.5561,0.5555,0.5549,0.5551,0.5586,0.5562,0.5563,0.5563,0.5563,0.5563,0.5416,0.5416,0.5428,0.5434,0.5442,0.545,0.5451,0.5463,0.5468,0.5477,0.5487,0.5491,0.5503,0.5516,0.5523,0.5527,0.5533,0.5531,0.553,0.5529,0.5526,0.555,0.5529,0.5529,0.5529,0.5529,0.5529,0,0.5387,0.5396,0.5401,0.5412,0.5417,0.5429,0.5439,0.5442,0.5446,0.5456,0.5462,0.5468,0.5475,0.5488,0.5496,0.5496,0.5502,0.5498,0.5497,0.5498,0.5521,0.5521,0.5493,0.5493,0.5493,0.5493,0.5493,0.5493,0.5372,0.5372,0.5382,0.5386,0.5396,0.54,0.5405,0.5412,0.542,0.5427,0.5433,0.5442,0.5453,0.5462,0.5468,0.5472,0.5474,0.5468,0.5473,0.5494,0.5497,0.55,0.55,0.5468,0.5468,0.545,0.545,0.545]},{"header":{"parameterUnit":"m.s-1","parameterCategory":1,"la1":30.2991,"la2":30.254,"lo1":-89.0895,"lo2":-89.0444,"dy":0.0017,"dx":0.0017,"nx":28,"ny":28,"refTime":"2024-09-01T03:00:00:Z","depth":0,"parameterNumber":3,"parameterNumberName":"V-component_of_WINDS"},"data":[0,0,0,0,0,0,0,0,0,0,0,0,0,0,0,0,0,0,0,0,0,0,0,0,0,0,0,0,0,0,0,0,0,0,0,0,0,0,0,0,0,0,0,0,0,0,0,0,0,0,0,0,0,0,0,0,0,0,-2.1212,-2.1213,0,-2.1304,-2.1305,-2.1306,-2.1305,-2.1304,-2.1303,-2.1302,-2.1397,-2.1401,-2.1404,0,0,0,0,0,0,0,0,0,0,0,0,0,-2.1038,-2.1041,-2.1212,-2.1213,-2.1214,-2.1304,-2.1305,-2.1306,-2.1306,-2.1304,-2.1303,-2.1301,-2.1396,-2.14,-2.1405,0,0,0,0,0,0,0,0,0,0,0,0,0,-2.112,-2.1042,-2.1212,-2.1225,-2.1227,-2.1303,-2.1305,-2.1307,-2.1306,-2.1304,-2.1302,-2.13,-2.1394,-2.14,-2.1405,-2.1475,0,0,-2.1422,-2.1424,0,0,0,0,0,0,0,0,-2.1116,-2.1127,-2.1222,-2.1224,-2.1227,-2.1291,-2.1279,-2.1363,-2.1306,-2.1276,-2.1302,-2.13,-2.1363,-2.1371,-2.1393,-2.148,-2.1484,-2.1422,-2.1426,-2.1428,-2.143,0,0,0,0,0,0,0,-2.111,-2.1123,-2.1249,-2.1223,-2.1226,-2.1227,-2.1236,-2.1295,-2.1329,-2.1278,-2.1279,-2.1289,-2.1364,-2.1387,-2.1395,-2.1485,-2.1422,-2.1427,-2.1431,-2.1433,-2.1635,-2.1637,0,0,0,0,0,0,-2.1101,-2.1118,-2.1246,-2.1251,-2.1165,-2.1231,-2.1242,-2.1272,-2.1328,-2.1335,-2.1291,-2.1289,-2.1379,-2.1388,-2.1398,-2.1484,-2.1428,-2.1433,-2.1436,-2.1633,-2.1635,-2.1638,0,0,0,0,0,0,-2.1098,-2.1113,-2.1242,-2.1185,-2.1201,-2.1236,-2.127,-2.1275,-2.1298,-2.1337,-2.1344,-2.1308,-2.1378,-2.139,-2.1456,-2.1487,-2.1436,-2.1441,-2.163,-2.1634,-2.1637,-2.1656,0,0,0,0,0,0,-2.1093,-2.1111,-2.1138,-2.1185,-2.1204,-2.1298,-2.1272,-2.1278,-2.1307,-2.1306,-2.1355,-2.1361,-2.1377,-2.1448,-2.1462,-2.1494,-2.1445,-2.1628,-2.1632,-2.1636,-2.1653,-2.1659,-2.1665,0,0,0,0,0,-2.1086,-2.114,-2.1139,-2.1155,-2.1238,-2.13,-2.1311,-2.1327,-2.131,-2.1337,-2.1363,-2.136,-2.1482,-2.1455,-2.147,-2.1504,-2.1626,-2.1631,-2.1635,-2.165,-2.1658,-2.1665,0,0,0,0,0,0,-2.1096,-2.1147,-2.1146,-2.1217,-2.1254,-2.1299,-2.1334,-2.1335,-2.1378,-2.1375,-2.1394,-2.1406,-2.1471,-2.1495,-2.1463,-2.1575,-2.1552,-2.156,-2.1557,-2.1566,-2.1572,-2.1564,-2.145,0,0,0,0,0,-2.1106,-2.1152,-2.1194,-2.1252,-2.127,-2.1299,-2.1327,-2.1336,-2.1376,-2.1391,-2.1422,-2.146,-2.1507,-2.1538,-2.1583,-2.1656,-2.1667,-2.1687,-2.1694,-2.1698,-2.1705,-2.1745,-2.1755,-2.1653,-2.1653,-2.1653,0,0,-2.1128,-2.1161,-2.1189,-2.1255,-2.1284,-2.1331,-2.1312,-2.1363,-2.1398,-2.1399,-2.1463,-2.1486,-2.1531,-2.16,-2.1633,-2.1622,-2.1736,-2.1704,-2.1708,-2.1712,-2.1751,-2.1761,-2.1769,-2.1656,-2.1656,-2.1655,0,0,-2.1192,-2.1221,-2.1273,-2.1303,-2.1348,-2.1367,-2.138,-2.1425,-2.1441,-2.1505,-2.1507,-2.1549,-2.163,-2.1662,-2.1688,-2.1764,-2.1763,-2.1778,-2.181,-2.1849,-2.1857,-2.1865,-2.1891,-2.1901,-2.1785,-2.1785,-2.1785,0,-2.1213,-2.1283,-2.1299,-2.135,-2.1379,-2.1382,-2.1435,-2.1463,-2.1522,-2.1542,-2.1529,-2.163,-2.166,-2.1737,-2.1755,-2.1777,-2.1792,-2.1773,-2.1855,-2.1862,-2.1869,-2.1895,-2.1905,-2.1786,-2.1786,-2.1786,-2.1786,0,-2.1307,-2.1356,-2.1392,-2.1447,-2.1481,-2.1532,-2.1556,-2.1588,-2.1595,-2.1615,-2.1681,-2.1717,-2.177,-2.1789,-2.1797,-2.1868,-2.1859,-2.1851,-2.1827,-2.188,-2.1905,-2.1915,-2.1789,-2.1788,-2.1788,-2.1787,0,0,-2.1379,-2.1442,-2.1456,-2.1481,-2.1531,-2.1569,-2.1621,-2.1672,-2.1699,-2.1739,-2.1783,-2.1851,-2.1843,-2.1874,-2.1885,-2.1919,-2.1977,-2.1906,-2.1907,-2.1918,-2.2057,-2.2062,-2.2074,-2.1977,-2.1979,-2.198,-2.2053,0,-2.1447,-2.1538,-2.1555,-2.1634,-2.1679,-2.1683,-2.1728,-2.1764,-2.1785,-2.1827,-2.185,-2.1898,-2.1884,-2.1902,-2.1936,-2.1962,-2.2005,-2.1957,-2.2018,-2.202,-2.2006,-2.2086,-2.2093,-2.216,-2.2062,-2.2064,-2.2065,0,-2.1539,-2.1581,-2.1665,-2.1709,-2.1728,-2.1769,-2.1817,-2.1857,-2.1898,-2.1911,-2.1944,-2.1952,-2.2006,-2.1981,-2.2056,-2.2023,-2.2049,-2.2066,-2.2069,-2.2075,-2.2045,-2.2094,-2.2181,-2.2191,-2.2081,-2.2079,-2.2078,0,-2.1582,-2.166,-2.172,-2.1741,-2.1794,-2.1823,-2.1846,-2.1886,-2.1915,-2.1958,-2.1977,-2.2026,-2.2052,-2.209,-2.2111,-2.209,-2.2184,-2.2161,-2.2197,-2.2196,-2.2216,-2.2214,-2.2308,-2.2233,-2.2233,-2.2233,-2.2233,0,-2.1656,-2.1708,-2.174,-2.1777,-2.1834,-2.1853,-2.191,-2.1933,-2.1968,-2.201,-2.2017,-2.2056,-2.2081,-2.2124,-2.2141,-2.22,-2.2213,-2.2225,-2.2228,-2.2224,-2.2222,-2.224,-2.2236,-2.2236,-2.2235,-2.2234,-2.2234,0,-2.1714,-2.1738,-2.1804,-2.1849,-2.1861,-2.1901,-2.194,-2.1977,-2.1997,-2.205,-2.2064,-2.2097,-2.2148,-2.2172,-2.2236,-2.2247,-2.2314,-2.2315,-2.23,-2.2301,-2.2336,-2.2332,-2.2444,-2.246,-2.2375,-2.2376,-2.2377,0,-2.176,-2.1799,-2.1848,-2.1876,-2.19,-2.1946,-2.1976,-2.1997,-2.2028,-2.2078,-2.2108,-2.216,-2.2202,-2.2283,-2.2313,-2.2362,-2.2364,-2.24,-2.2371,-2.2365,-2.2364,-2.2361,-2.2365,-2.2404,-2.2405,-2.2406,-2.2407,0,-2.1838,-2.1848,-2.1891,-2.1938,-2.1974,-2.2012,-2.205,-2.2073,-2.2099,-2.2134,-2.2186,-2.2219,-2.2283,-2.2334,-2.2385,-2.241,-2.2413,-2.2415,-2.2426,-2.2422,-2.2411,-2.2417,-2.2314,-2.2413,-2.2412,-2.2412,-2.2411,-2.2411,-2.1891,-2.1926,-2.1966,-2.2013,-2.2044,-2.2079,-2.2115,-2.214,-2.2184,-2.2237,-2.2247,-2.2302,-2.2343,-2.2412,-2.2438,-2.2482,-2.2474,-2.249,-2.2494,-2.2497,-2.2499,-2.2404,-2.2492,-2.2492,-2.2491,-2.2491,-2.2491,0,-2.1969,-2.1995,-2.2038,-2.2091,-2.2128,-2.2127,-2.2169,-2.2201,-2.2249,-2.2287,-2.2328,-2.2388,-2.2437,-2.2471,-2.2521,-2.255,-2.2553,-2.2562,-2.256,-2.2566,-2.2503,-2.2489,-2.2559,-2.2559,-2.2559,-2.2559,-2.2559,-2.2559,-2.2014,-2.2073,-2.2088,-2.2162,-2.2188,-2.2241,-2.2265,-2.2298,-2.2328,-2.2394,-2.2435,-2.2457,-2.2493,-2.2546,-2.2591,-2.26,-2.2618,-2.2628,-2.2637,-2.2578,-2.257,-2.2564,-2.255,-2.2632,-2.2632,-2.2696,-2.2696,-2.2697]}]]